H1 CPF 2 NER 2024 3 26 9 086 01 glonass140 H2 1903001 9140 44299 2024 3 26 0 0 0 2024 3 29 23 45 0 900 1 1 0 0 0 1 H9 10 0 60395 0.00000 0 -21501939.554 -12949424.180 4606469.009 10 0 60395 900.00000 0 -21882963.002 -13046617.802 1429557.928 10 0 60395 1800.00000 0 -21930852.549 -12918224.355 -1775093.298 10 0 60395 2700.00000 0 -21618224.885 -12611701.650 -4945281.789 10 0 60395 3600.00000 0 -20929754.436 -12180012.915 -8019437.395 10 0 60395 4500.00000 0 -19862977.246 -11679190.987 -10937819.809 10 0 60395 5400.00000 0 -18428571.644 -11165783.150 -13643682.490 10 0 60395 6300.00000 0 -16650102.266 -10694284.944 -16084380.323 10 0 60395 7200.00000 0 -14563236.573 -10314671.911 -18212399.006 10 0 60395 8100.00000 0 -12214465.180 -10070134.251 -19986285.662 10 0 60395 9000.00000 0 -9659378.190 -9995110.893 -21371462.188 10 0 60395 9900.00000 0 -6960568.495 -10113706.896 -22340905.067 10 0 60395 10800.00000 0 -4185248.672 -10438561.949 -22875678.109 10 0 60395 11700.00000 0 -1402680.200 -10970218.701 -22965307.407 10 0 60395 12600.00000 0 1318478.303 -11697018.517 -22607990.870 10 0 60395 13500.00000 0 3912793.644 -12595529.922 -21810637.907 10 0 60395 14400.00000 0 6320542.447 -13631492.452 -20588738.154 10 0 60395 15300.00000 0 8489953.971 -14761236.624 -18966061.442 10 0 60395 16200.00000 0 10379118.179 -15933520.530 -16974194.598 10 0 60395 17100.00000 0 11957479.815 -17091705.648 -14651923.930 10 0 60395 18000.00000 0 13206856.711 -18176179.876 -12044475.448 10 0 60395 18900.00000 0 14121940.635 -19126925.149 -9202627.840 10 0 60395 19800.00000 0 14710260.942 -19886120.620 -6181715.933 10 0 60395 20700.00000 0 14991614.094 -20400670.810 -3040544.748 10 0 60395 21600.00000 0 14996984.772 -20624551.284 159763.837 10 0 60395 22500.00000 0 14767005.965 -20520872.206 3356968.427 10 0 60395 23400.00000 0 14350024.868 -20063572.263 6488925.124 10 0 60395 24300.00000 0 13799857.988 -19238671.287 9494799.716 10 0 60395 25200.00000 0 13173331.777 -18045028.806 12316250.843 10 0 60395 26100.00000 0 12527713.792 -16494576.772 14898560.830 10 0 60395 27000.00000 0 11918143.510 -14612016.955 17191692.264 10 0 60395 27900.00000 0 11395171.437 -12433995.966 19151250.339 10 0 60395 28800.00000 0 11002510.019 -10007792.569 20739333.040 10 0 60395 29700.00000 0 10775090.526 -7389572.053 21925253.813 10 0 60395 30600.00000 0 10737506.827 -4642280.046 22686123.980 10 0 60395 31500.00000 0 10902910.602 -1833262.711 23007284.846 10 0 60395 32400.00000 0 11272403.555 968288.825 22882582.325 10 0 60395 33300.00000 0 11834951.502 3693965.149 22314479.668 10 0 60395 34200.00000 0 12567823.679 6278728.900 21314006.673 10 0 60395 35100.00000 0 13437538.870 8663363.099 19900546.574 10 0 60395 36000.00000 0 14401279.117 10796677.604 18101464.489 10 0 60395 36900.00000 0 15408712.446 12637383.693 15951584.088 10 0 60395 37800.00000 0 16404149.008 14155560.267 13492521.737 10 0 60395 38700.00000 0 17328941.105 15333651.841 10771890.018 10 0 60395 39600.00000 0 18124027.126 16166957.536 7842384.979 10 0 60395 40500.00000 0 18732513.097 16663591.263 4760773.826 10 0 60395 41400.00000 0 19102183.573 16843915.111 1586801.792 10 0 60395 42300.00000 0 19187836.086 16739469.863 -1617961.172 10 0 60395 43200.00000 0 18953340.368 16391447.633 -4791311.857 10 0 60395 44100.00000 0 18373334.674 15848770.869 -7871620.422 10 0 60395 45000.00000 0 17434486.532 15165858.721 -10799028.534 10 0 60395 45900.00000 0 16136263.283 14400175.019 -13516615.470 10 0 60395 46800.00000 0 14491178.240 13609661.559 -15971509.109 10 0 60395 47700.00000 0 12524500.348 12850165.326 -18115919.697 10 0 60395 48600.00000 0 10273437.691 12172968.739 -19908075.829 10 0 60395 49500.00000 0 7785827.381 11622527.650 -21313044.013 10 0 60395 50400.00000 0 5118385.183 11234513.210 -22303415.448 10 0 60395 51300.00000 0 2334586.751 11034240.833 -22859846.302 10 0 60395 52200.00000 0 -497732.119 11035553.215 -22971440.650 10 0 60395 53100.00000 0 -3308956.842 11240205.109 -22635968.266 10 0 60395 54000.00000 0 -6030349.960 11637776.399 -21859912.702 10 0 60395 54900.00000 0 -8596671.323 12206117.572 -20658348.354 10 0 60395 55800.00000 0 -10948653.539 12912309.109 -19054648.609 10 0 60395 56700.00000 0 -13035229.700 13714094.438 -17080030.455 10 0 60395 57600.00000 0 -14815420.724 14561725.869 -14772944.266 10 0 60395 58500.00000 0 -16259803.839 15400145.216 -12178320.665 10 0 60395 59400.00000 0 -17351501.454 16171406.475 -9346689.317 10 0 60395 60300.00000 0 -18086649.941 16817237.425 -6333187.280 10 0 60395 61200.00000 0 -18474329.854 17281631.045 -3196476.884 10 0 60395 62100.00000 0 -18535962.067 17513356.312 2404.904 10 0 60395 63000.00000 0 -18304196.960 17468281.466 3201242.288 10 0 60395 63900.00000 0 -17821345.280 17111410.881 6337857.341 10 0 60395 64800.00000 0 -17137418.624 16418549.092 9351323.048 10 0 60395 65700.00000 0 -16307863.829 15377521.510 12183148.492 10 0 60395 66600.00000 0 -15391088.139 13988900.366 14778412.773 10 0 60395 67500.00000 0 -14445880.380 12266205.412 17086825.700 10 0 60395 68400.00000 0 -13528837.271 10235571.068 19063695.150 10 0 60395 69300.00000 0 -12691903.124 7934894.004 20670783.074 10 0 60395 70200.00000 0 -11980125.945 5412496.680 21877034.682 10 0 60395 71100.00000 0 -11429723.338 2725362.197 22659167.919 10 0 60395 72000.00000 0 -11066538.367 -62986.696 23002113.093 10 0 60395 72900.00000 0 -10904949.006 -2884877.273 22899295.297 10 0 60395 73800.00000 0 -10947275.864 -5671047.277 22352755.110 10 0 60395 74700.00000 0 -11183712.207 -8353271.383 21373105.819 10 0 60395 75600.00000 0 -11592778.714 -10866946.446 19979328.187 10 0 60395 76500.00000 0 -12142283.786 -13153529.967 18198406.568 10 0 60395 77400.00000 0 -12790749.338 -15162732.154 16064812.847 10 0 60395 78300.00000 0 -13489242.759 -16854371.902 13619847.363 10 0 60395 79200.00000 0 -14183538.748 -18199820.684 10910848.569 10 0 60395 80100.00000 0 -14816520.874 -19182974.984 7990285.661 10 0 60395 81000.00000 0 -15330722.397 -19800717.281 4914750.776 10 0 60395 81900.00000 0 -15670899.761 -20062846.600 1743869.392 10 0 60395 82800.00000 0 -15786530.337 -19991481.599 -1460850.508 10 0 60395 83700.00000 0 -15634128.784 -19619961.213 -4637208.564 10 0 60395 84600.00000 0 -15179283.593 -18991288.910 -7723518.469 10 0 60395 85500.00000 0 -14398326.819 -18156185.901 -10659807.095 10 0 60396 0.00000 0 -13279565.241 -17170835.315 -13388982.502 10 0 60396 900.00000 0 -11824018.724 -16094411.865 -15857949.134 10 0 60396 1800.00000 0 -10045634.378 -14986502.617 -18018644.401 10 0 60396 2700.00000 0 -7970963.598 -13904526.050 -19828980.931 10 0 60396 3600.00000 0 -5638314.997 -12901259.828 -21253671.996 10 0 60396 4500.00000 0 -3096416.457 -12022581.329 -22264925.167 10 0 60396 5400.00000 0 -402640.754 -11305516.632 -22842990.080 10 0 60396 6300.00000 0 2379132.453 -10776680.541 -22976549.327 10 0 60396 7200.00000 0 5180930.012 -10451173.719 -22662944.532 10 0 60396 8100.00000 0 7933274.189 -10331983.667 -21908232.852 10 0 60396 9000.00000 0 10567839.681 -10409914.952 -20727072.443 10 0 60396 9900.00000 0 13020068.203 -10664051.656 -19142438.809 10 0 60396 10800.00000 0 15231631.820 -11062732.388 -17185177.254 10 0 60396 11700.00000 0 17152642.325 -11564996.384 -14893399.980 10 0 60396 12600.00000 0 18743514.561 -12122439.067 -12311739.590 10 0 60396 13500.00000 0 19976406.095 -12681397.939 -9490473.731 10 0 60396 14400.00000 0 20836173.575 -13185375.469 -6484538.352 10 0 60396 15300.00000 0 21320806.512 -13577595.492 -3352449.494 10 0 60396 16200.00000 0 21441321.487 -13803583.916 -155155.455 10 0 60396 17100.00000 0 21221122.696 -13813663.554 3045157.373 10 0 60396 18000.00000 0 20694857.386 -13565256.693 6186280.730 10 0 60396 18900.00000 0 19906816.098 -13024897.395 9207198.277 10 0 60396 19800.00000 0 18908946.751 -12169868.076 12049272.665 10 0 60396 20700.00000 0 17758567.638 -10989391.103 14657382.472 10 0 60396 21600.00000 0 16515876.696 -9485325.129 16980986.953 10 0 60396 22500.00000 0 15241362.466 -7672336.897 18975098.388 10 0 60396 23400.00000 0 13993225.722 -5577541.250 20601143.906 10 0 60396 24300.00000 0 12824919.674 -3239624.315 21827701.193 10 0 60396 25200.00000 0 11782911.148 -707486.047 22631095.063 10 0 60396 26100.00000 0 10904755.462 1961541.845 22995844.601 10 0 60396 27000.00000 0 10217564.314 4703829.410 22914953.433 10 0 60396 27900.00000 0 9736929.486 7451845.975 22390038.416 10 0 60396 28800.00000 0 9466346.173 10136723.540 21431294.899 10 0 60396 29700.00000 0 9397159.121 12690881.318 20057299.432 10 0 60396 30600.00000 0 9509033.137 15050604.144 18294653.574 10 0 60396 31500.00000 0 9770927.975 17158469.268 16177475.162 10 0 60396 32400.00000 0 10142536.733 18965522.079 13746746.042 10 0 60396 33300.00000 0 10576127.650 20433111.441 11049527.909 10 0 60396 34200.00000 0 11018712.323 21534308.946 8138060.352 10 0 60396 35100.00000 0 11414449.547 22254853.411 5068757.595 10 0 60396 36000.00000 0 11707183.888 22593581.369 1901122.473 10 0 60396 36900.00000 0 11843012.035 22562325.487 -1303401.871 10 0 60396 37800.00000 0 11772768.479 22185284.979 -4482620.705 10 0 60396 38700.00000 0 11454325.026 21497894.159 -7574793.864 10 0 60396 39600.00000 0 10854606.144 20545236.366 -10519835.804 10 0 60396 40500.00000 0 9951233.770 19380069.707 -13260485.928 10 0 60396 41400.00000 0 8733730.604 18060547.485 -15743426.042 10 0 60396 42300.00000 0 7204229.344 16647729.210 -17920322.713 10 0 60396 43200.00000 0 5377656.019 15202986.970 -19748773.792 10 0 60396 44100.00000 0 3281377.689 13785416.434 -21193140.259 10 0 60396 45000.00000 0 954327.347 12449361.616 -22225246.759 10 0 60396 45900.00000 0 -1554359.133 11242157.735 -22824936.867 10 0 60396 46800.00000 0 -4187138.558 10202187.285 -22980471.928 10 0 60396 47700.00000 0 -6880214.726 9357331.236 -22688765.362 10 0 60396 48600.00000 0 -9565962.534 8723880.544 -21955447.537 10 0 60396 49500.00000 0 -12175521.416 8305953.705 -20794759.608 10 0 60396 50400.00000 0 -14641450.276 8095444.668 -19229278.047 10 0 60396 51300.00000 0 -16900333.310 8072502.884 -17289474.942 10 0 60396 52200.00000 0 -18895227.990 8206524.683 -15013122.476 10 0 60396 53100.00000 0 -20577852.862 8457613.382 -12444553.132 10 0 60396 54000.00000 0 -21910423.758 8778445.466 -9633790.260 10 0 60396 54900.00000 0 -22867061.770 9116462.890 -6635566.326 10 0 60396 55800.00000 0 -23434714.413 9416297.516 -3508248.664 10 0 60396 56700.00000 0 -23613552.160 9622323.869 -312694.469 10 0 60396 57600.00000 0 -23416824.754 9681230.943 2888941.700 10 0 60396 58500.00000 0 -22870184.713 9544503.134 6034423.692 10 0 60396 59400.00000 0 -22010508.020 9170704.480 9062648.264 10 0 60396 60300.00000 0 -20884263.152 8527468.985 11914834.045 10 0 60396 61200.00000 0 -19545498.522 7593112.592 14535661.455 10 0 60396 62100.00000 0 -18053534.125 6357798.624 16874341.453 10 0 60396 63000.00000 0 -16470455.145 4824207.564 18885592.827 10 0 60396 63900.00000 0 -14858513.071 3007682.986 20530509.770 10 0 60396 64800.00000 0 -13277543.068 935847.385 21777304.049 10 0 60396 65700.00000 0 -11782505.112 -1352296.338 22601908.623 10 0 60396 66600.00000 0 -10421250.680 -3807740.756 22988432.293 10 0 60396 67500.00000 0 -9232607.004 -6373270.692 22929457.770 10 0 60396 68400.00000 0 -8244857.398 -8985607.244 22426178.383 10 0 60396 69300.00000 0 -7474679.666 -11577811.297 21488371.364 10 0 60396 70200.00000 0 -6926585.565 -14081848.216 20134208.506 10 0 60396 71100.00000 0 -6592883.657 -16431208.804 18389907.673 10 0 60396 72000.00000 0 -6454166.313 -18563479.163 16289231.406 10 0 60396 72900.00000 0 -6480300.038 -20422754.006 13872841.500 10 0 60396 73800.00000 0 -6631877.428 -21961794.119 11187521.042 10 0 60396 74700.00000 0 -6862069.907 -23143838.895 8285277.918 10 0 60396 75600.00000 0 -7118803.506 -23943998.750 5222346.137 10 0 60396 76500.00000 0 -7347166.315 -24350169.416 2058103.430 10 0 60396 77400.00000 0 -7491946.189 -24363429.653 -1146074.507 10 0 60396 78300.00000 0 -7500191.506 -23997905.396 -4328001.283 10 0 60396 79200.00000 0 -7323686.446 -23280105.507 -7425885.711 10 0 60396 80100.00000 0 -6921235.455 -22247756.519 -10379532.746 10 0 60396 81000.00000 0 -6260659.337 -20948184.791 -13131515.859 10 0 60396 81900.00000 0 -5320417.257 -19436313.665 -15628297.661 10 0 60396 82800.00000 0 -4090784.546 -17772359.476 -17821276.472 10 0 60396 83700.00000 0 -2574534.785 -16019323.089 -19667738.031 10 0 60396 84600.00000 0 -787095.458 -14240382.241 -21131693.384 10 0 60396 85500.00000 0 1243831.383 -12496294.262 -22184586.240 10 0 60397 0.00000 0 3479169.225 -10842918.398 -22805855.625 10 0 60397 900.00000 0 5869853.250 -9328960.934 -22983342.814 10 0 60397 1800.00000 0 8358642.996 -7994039.947 -22713533.530 10 0 60397 2700.00000 0 10882290.879 -6867147.911 -22001631.479 10 0 60397 3600.00000 0 13373973.910 -5965578.712 -20861460.487 10 0 60397 4500.00000 0 15765888.680 -5294362.894 -19315197.224 10 0 60397 5400.00000 0 17991901.256 -4846234.477 -17392939.376 10 0 60397 6300.00000 0 19990141.274 -4602129.961 -15132117.444 10 0 60397 7200.00000 0 21705431.560 -4532197.549 -12576761.666 10 0 60397 8100.00000 0 23091451.488 -4597272.819 -9776638.503 10 0 60397 9000.00000 0 24112543.362 -4750757.235 -6786273.903 10 0 60397 9900.00000 0 24745086.179 -4940818.623 -3663883.077 10 0 60397 10800.00000 0 24978379.541 -5112819.107 -470228.430 10 0 60397 11700.00000 0 24815001.279 -5211866.274 2732571.142 10 0 60397 12600.00000 0 24270624.749 -5185378.330 5882255.414 10 0 60397 13500.00000 0 23373304.720 -4985553.592 8917637.918 10 0 60397 14400.00000 0 22162263.215 -4571639.024 11779796.671 10 0 60397 15300.00000 0 20686227.683 -3911901.405 14413216.983 10 0 60397 16200.00000 0 19001392.461 -2985217.625 16766864.153 10 0 60397 17100.00000 0 17169089.938 -1782216.973 18795165.658 10 0 60397 18000.00000 0 15253269.493 -305927.318 20458884.489 10 0 60397 18900.00000 0 13317889.742 1428101.986 21725867.773 10 0 60397 19800.00000 0 11424332.585 3392205.824 22571657.453 10 0 60397 20700.00000 0 9628946.138 5547521.087 22979952.427 10 0 60397 21600.00000 0 7980817.728 7845378.862 22942914.444 10 0 60397 22500.00000 0 6519868.270 10229114.002 22461312.794 10 0 60397 23400.00000 0 5275345.810 12636217.944 21544505.649 10 0 60397 24300.00000 0 4264779.454 15000746.660 20210258.675 10 0 60397 25200.00000 0 3493435.864 17255885.132 18484404.286 10 0 60397 26100.00000 0 2954299.877 19336563.175 16400347.625 10 0 60397 27000.00000 0 2628579.172 21182015.136 13998428.026 10 0 60397 27900.00000 0 2486711.358 22738177.994 11325147.313 10 0 60397 28800.00000 0 2489830.962 23959828.674 8432278.807 10 0 60397 29700.00000 0 2591634.666 24812371.799 5375873.289 10 0 60397 30600.00000 0 2740566.344 25273203.256 2215180.264 10 0 60397 31500.00000 0 2882229.872 25332592.239 -988495.163 10 0 60397 32400.00000 0 2961927.828 24994044.335 -4172978.051 10 0 60397 33300.00000 0 2927218.604 24274129.714 -7276429.162 10 0 60397 34200.00000 0 2730383.295 23201782.881 -10238546.711 10 0 60397 35100.00000 0 2330697.287 21817102.597 -13001740.730 10 0 60397 36000.00000 0 1696409.354 20169701.648 -15512256.810 10 0 60397 36900.00000 0 806343.241 18316675.158 -17721226.872 10 0 60397 37800.00000 0 -348947.526 16320272.270 -19585626.065 10 0 60397 38700.00000 0 -1766522.142 14245368.552 -21069116.725 10 0 60397 39600.00000 0 -3430921.940 12156844.951 -22142762.546 10 0 60397 40500.00000 0 -5314574.096 10116983.033 -22785598.700 10 0 60397 41400.00000 0 -7378714.529 8182985.575 -22985046.478 10 0 60397 42300.00000 0 -9574792.832 6404726.285 -22737164.019 10 0 60397 43200.00000 0 -11846301.758 4822822.777 -22046727.929 10 0 60397 44100.00000 0 -14130955.675 3467113.244 -20927143.845 10 0 60397 45000.00000 0 -16363127.495 2355600.300 -19400187.353 10 0 60397 45900.00000 0 -18476442.425 1493905.656 -17495580.020 10 0 60397 46800.00000 0 -20406420.076 875257.686 -15250408.614 10 0 60397 47700.00000 0 -22093054.058 481011.361 -12708398.802 10 0 60397 48600.00000 0 -23483220.712 281677.323 -9919057.628 10 0 60397 49500.00000 0 -24532815.671 238415.244 -6936701.895 10 0 60397 50400.00000 0 -25208528.384 304926.822 -3819392.010 10 0 60397 51300.00000 0 -25489180.087 429666.710 -627792.911 10 0 60397 52200.00000 0 -25366569.323 558276.257 2576014.838 10 0 60397 53100.00000 0 -24845790.036 636135.540 5729749.577 10 0 60397 54000.00000 0 -23945009.737 610924.403 8772144.203 10 0 60397 54900.00000 0 -22694718.145 435083.120 11644138.644 10 0 60397 55800.00000 0 -21136478.974 68067.948 14290025.504 10 0 60397 56700.00000 0 -19321238.361 -521694.100 16658526.658 10 0 60397 57600.00000 0 -17307261.676 -1355233.872 18703780.283 10 0 60397 58500.00000 0 -15157785.672 -2441918.238 20386219.873 10 0 60397 59400.00000 0 -12938484.222 -3778824.890 21673329.290 10 0 60397 60300.00000 0 -10714853.095 -5350640.033 22540260.451 10 0 60397 61200.00000 0 -8549622.023 -7130083.414 22970302.965 10 0 60397 62100.00000 0 -6500300.623 -9078843.362 22955197.852 10 0 60397 63000.00000 0 -4616958.799 -11148983.532 22495290.259 10 0 60397 63900.00000 0 -2940332.318 -13284763.709 21599518.868 10 0 60397 64800.00000 0 -1500330.636 -15424800.031 20285242.497 10 0 60397 65700.00000 0 -315007.473 -17504476.087 18577907.112 10 0 60397 66600.00000 0 609964.381 -19458505.859 16510559.195 10 0 60397 67500.00000 0 1281293.273 -21223543.070 14123214.106 10 0 60397 68400.00000 0 1717544.769 -22740729.281 11462090.650 10 0 60397 69300.00000 0 1948116.058 -23958075.213 8578725.610 10 0 60397 70200.00000 0 2011752.028 -24832576.256 5528984.378 10 0 60397 71100.00000 0 1954665.512 -25331973.802 2371985.929 10 0 60397 72000.00000 0 1828340.869 -25436088.310 -831037.659 10 0 60397 72900.00000 0 1687113.626 -25137667.645 -4017925.425 10 0 60397 73800.00000 0 1585628.520 -24442714.248 -7126792.693 10 0 60397 74700.00000 0 1576283.751 -23370276.401 -10097233.615 10 0 60397 75600.00000 0 1706770.103 -21951711.302 -12871497.501 10 0 60397 76500.00000 0 2017809.899 -20229449.861 -15395615.631 10 0 60397 77400.00000 0 2541192.474 -18255314.145 -17620456.160 10 0 60397 78300.00000 0 3298190.590 -16088457.266 -19502686.127 10 0 60397 79200.00000 0 4298426.195 -13793011.446 -21005621.398 10 0 60397 80100.00000 0 5539235.055 -11435542.352 -22099947.574 10 0 60397 81000.00000 0 7005558.787 -9082415.913 -22764297.487 10 0 60397 81900.00000 0 8670370.523 -6797187.567 -22985673.690 10 0 60397 82800.00000 0 10495617.939 -4638122.923 -22759707.381 10 0 60397 83700.00000 0 12433645.397 -2655953.316 -22090748.374 10 0 60397 84600.00000 0 14429036.684 -891959.821 -20991784.021 10 0 60397 85500.00000 0 16420801.807 623534.500 -19484188.331 10 0 60398 0.00000 0 18344816.439 1872201.470 -17597306.058 10 0 60398 900.00000 0 20136412.846 2848231.792 -15367878.589 10 0 60398 1800.00000 0 21733010.882 3558323.600 -12839325.424 10 0 60398 2700.00000 0 23076681.680 4021139.583 -10060892.007 10 0 60398 3600.00000 0 24116533.375 4266255.364 -7086683.380 10 0 60398 4500.00000 0 24810819.191 4332645.881 -3974602.157 10 0 60398 5400.00000 0 25128678.826 4266775.356 -785212.522 10 0 60398 6300.00000 0 25051439.845 4120373.368 2419446.751 10 0 60398 7200.00000 0 24573424.520 3947992.786 5577076.081 10 0 60398 8100.00000 0 23702228.693 3804454.362 8626331.184 10 0 60398 9000.00000 0 22458461.661 3742287.299 11508017.172 10 0 60398 9900.00000 0 20874958.842 3809274.898 14166236.976 10 0 60398 10800.00000 0 18995501.159 4046209.467 16549471.781 10 0 60398 11700.00000 0 16873095.563 4484951.474 18611572.864 10 0 60398 12600.00000 0 14567889.147 5146874.652 20312646.291 10 0 60398 13500.00000 0 12144804.196 6041762.313 21619814.366 10 0 60398 14400.00000 0 9670992.507 7167201.012 22507840.333 10 0 60398 15300.00000 0 7213214.380 8508496.892 22959605.475 10 0 60398 16200.00000 0 4835250.187 10039118.328 22966430.639 10 0 60398 17100.00000 0 2595450.664 11721646.753 22528236.932 10 0 60398 18000.00000 0 544526.062 13509196.658 21653543.181 10 0 60398 18900.00000 0 -1276335.761 15347246.458 20359300.512 10 0 60398 19800.00000 0 -2836945.842 17175805.074 18670567.127 10 0 60398 20700.00000 0 -4119125.344 18931825.093 16620029.101 10 0 60398 21600.00000 0 -5117210.760 20551763.103 14247375.689 10 0 60398 22500.00000 0 -5838033.089 21974181.438 11598540.222 10 0 60398 23400.00000 0 -6300372.601 23142283.431 8724820.230 10 0 60398 24300.00000 0 -6533912.551 24006276.685 5681892.801 10 0 60398 25200.00000 0 -6577736.010 24525465.515 2528743.308 10 0 60398 26100.00000 0 -6478429.189 24669984.579 -673472.350 10 0 60398 27000.00000 0 -6287871.235 24422100.348 -3862610.376 10 0 60398 27900.00000 0 -6060803.872 23777024.829 -6976743.785 10 0 60398 28800.00000 0 -5852283.796 22743206.219 -9955365.679 10 0 60398 29700.00000 0 -5715125.904 21342082.995 -12740567.451 10 0 60398 30600.00000 0 -5697446.117 19607310.473 -15278168.626 10 0 60398 31500.00000 0 -5840408.533 17583491.035 -17518775.856 10 0 60398 32400.00000 0 -6176273.221 15324460.153 -19418750.014 10 0 60398 33300.00000 0 -6726828.394 12891199.082 -20941062.120 10 0 60398 34200.00000 0 -7502274.517 10349460.816 -22056020.985 10 0 60398 35100.00000 0 -8500608.923 7767208.058 -22741858.064 10 0 60398 36000.00000 0 -9707538.350 5211969.790 -22985157.786 10 0 60398 36900.00000 0 -11096924.495 2748226.586 -22781124.626 10 0 60398 37800.00000 0 -12631745.139 434933.572 -22133681.396 10 0 60398 38700.00000 0 -14265531.509 -1676715.850 -21055396.505 10 0 60398 39600.00000 0 -15944222.254 -3545192.404 -19567241.254 10 0 60398 40500.00000 0 -17608356.611 -5140120.484 -17698181.630 10 0 60398 41400.00000 0 -19195514.791 -6443293.220 -15484612.344 10 0 60398 42300.00000 0 -20642902.836 -7449171.442 -12969644.114 10 0 60398 43200.00000 0 -21889972.901 -8164846.881 -10202258.232 10 0 60398 44100.00000 0 -22880968.190 -8609472.579 -7236345.252 10 0 60398 45000.00000 0 -23567284.859 -8813186.193 -4129647.180 10 0 60398 45900.00000 0 -23909550.909 -8815573.442 -942624.572 10 0 60398 46800.00000 0 -23879334.181 -8663738.429 2262728.473 10 0 60398 47700.00000 0 -23460407.394 -8410064.242 5424097.319 10 0 60398 48600.00000 0 -22649517.083 -8109760.138 8480063.329 10 0 60398 49500.00000 0 -21456624.498 -7818300.469 11371299.545 10 0 60398 50400.00000 0 -19904608.858 -7588864.619 14041721.834 10 0 60398 51300.00000 0 -18028446.087 -7469886.784 16439573.101 10 0 60398 52200.00000 0 -15873898.015 -7502819.276 18518419.860 10 0 60398 53100.00000 0 -13495767.339 -7720203.579 20238042.558 10 0 60398 54000.00000 0 -10955791.382 -8144130.052 21565203.371 10 0 60398 54900.00000 0 -8320262.230 -8785150.622 22474277.892 10 0 60398 55800.00000 0 -5657471.725 -9641689.693 22947739.696 10 0 60398 56700.00000 0 -3035086.517 -10699977.706 22976489.684 10 0 60398 57600.00000 0 -517560.802 -11934510.159 22560024.797 10 0 60398 58500.00000 0 1836307.431 -13309013.137 21706443.573 10 0 60398 59400.00000 0 3975577.016 -14777875.640 20432288.729 10 0 60398 60300.00000 0 5859031.486 -16287989.746 18762229.726 10 0 60398 61200.00000 0 7456638.252 -17780922.761 16728591.001 10 0 60398 62100.00000 0 8750539.861 -19195331.723 14370734.215 10 0 60398 63000.00000 0 9735537.233 -20469520.368 11734305.468 10 0 60398 63900.00000 0 10419045.587 -21544032.405 8870361.023 10 0 60398 64800.00000 0 10820525.561 -22364173.082 5834387.395 10 0 60398 65700.00000 0 10970413.731 -22882353.535 2685233.889 10 0 60398 66600.00000 0 10908597.645 -23060159.333 -516022.408 10 0 60398 67500.00000 0 10682499.656 -22870055.790 -3707257.588 10 0 60398 68400.00000 0 10344850.373 -22296657.392 -6826505.141 10 0 60398 69300.00000 0 9951245.836 -21337506.794 -9813159.895 10 0 60398 70200.00000 0 9557591.846 -20003329.155 -12609158.074 10 0 60398 71100.00000 0 9217543.865 -18317749.637 -15160110.105 10 0 60398 72000.00000 0 8980051.307 -16316484.361 -17416363.664 10 0 60398 72900.00000 0 8887110.800 -14046037.321 -19333975.796 10 0 60398 73800.00000 0 8971824.262 -11561956.555 -20875574.751 10 0 60398 74700.00000 0 9256844.886 -8926721.479 -22011094.308 10 0 60398 75600.00000 0 9753277.780 -6207348.803 -22718365.933 10 0 60398 76500.00000 0 10460082.793 -3472816.365 -22983556.922 10 0 60398 77400.00000 0 11364005.864 -791411.887 -22801445.610 10 0 60398 78300.00000 0 12440042.857 1771883.086 -22175528.000 10 0 60398 79200.00000 0 13652417.258 4157865.292 -21117953.362 10 0 60398 80100.00000 0 14956031.256 6315335.027 -19649289.741 10 0 60398 81000.00000 0 16298329.565 8202982.087 -17798123.635 10 0 60398 81900.00000 0 17621497.650 9790854.114 -15600501.472 10 0 60398 82800.00000 0 18864901.630 11061346.658 -13099223.707 10 0 60398 83700.00000 0 19967666.674 12009674.478 -10343005.473 10 0 60398 84600.00000 0 20871284.641 12643805.633 -7385520.477 10 0 60398 85500.00000 0 21522140.322 12983862.664 -4284347.435 99